TITAN 3C TRANSTAGE DEB, 28837

Orbit data source: Space-Track

TITAN 3C TRANSTAGE DEB, 28837 is space debris in HEO originally from a launch on Tue, 21 Dec 1965 UTC launched from the Air Force Eastern Test Range (AFETR). Debris objects in space refer to the collection of defunct objects orbiting the Earth. Examples of debris include non-operational satellites, rocket bodies, and fragments generated from explosions, collisions, or faulty payload assembly.

Loading next visibility...
Identifier
28837, 1965-108CP
Orbit
HEO
Country
Flag of USUS
Related business
Manufacturer
Unknown
Mission
Spacecraft
Bus & Motor
Unknown
Mass
Unknown
Launch date (UTC)
1965-12-21 (60 years ago)
Launch vehicle
Unknown
Launch site
Air Force Eastern Test Range (AFETR)
Object type
Payload
Rocket body
Debris
Shape & HBR
Unknown shape, 0.1 m
Radar Cross Section
Small (<0.1 m²)

Expand to show TLE details & history
Last TLE update: 1 day ago

TLE from 1 day ago
0 TITAN 3C TRANSTAGE DEB
1 28837U 65108CP  26036.06518664 -.00000098  00000-0  00000-0 0  9999
2 28837  25.9125 292.7218 6516763  82.2763   8.4553  2.63338516 22351
Epoch: 2026-02-05T01:33Z
TLE epoch observation values (Epoch: 2026-02-05T01:33:52.125Z)
Latitude
19.43284°
Longitude
-92.17321°
Altitude
2,532.662 km
Speed
8.455 km/s
True Right ascension
04h 26m 04s
True Declination
19° 20' 48"
Sunlit
Object was in daylight at epoch
Visualization orbit readout
Latitude
Unknown
Longitude
Unknown
Altitude
Unknown
Speed
Unknown
Apparent Right ascension
Unknown
Apparent Declination
Unknown
Sunlit
N/A
Visualization observer readout
Local Sidereal Time
07:37:33
Azimuth
Unknown
Elevation
Unknown
Doppler factor
Unknown
Orbital elements
Apogee altitude
30,213.446 km
Perigee altitude
1,338.699 km
Semi-major axis
22,154.21 km
Eccentricity
0.65168
Inclination
25.9125°
RAAN
292.7218°
Arg. of periapsis
82.2763°
True anomaly
48.00033°
Mean anomaly
8.4553°
Eccentric anomaly
23.11124°
Mean motion
0.6582 °/min
Orbital period
546.95 mins
BSTAR
0
Loading maneuver chart data...
Computing Atmospheric mass density...

Documentation

Showing up to 5 results
|